AirNav   ProFlight Series 2 Aviation Headset
 
 1045 users online  

PN63 Limerick Generating Station Heliport
Sanatoga, Pennsylvania, USA

GOING TO SANATOGA?


FAA INFORMATION EFFECTIVE 18 JUNE 2020

Location

FAA Identifier: PN63
Lat/Long: 40-13-59.0000N 075-34-59.4000W
40-13.983333N 075-34.990000W
40.2330556,-75.5831667
(estimated)
Elevation: 344 ft. / 105 m (estimated)
From city: 2 miles W of SANATOGA, PA
Time zone: UTC -4 (UTC -5 during Standard Time)
Zip code: 19464

Heliport Operations

Heliport use: Private use. Permission required prior to landing
Activation date: 05/2003
Control tower: no
ARTCC: NEW YORK CENTER
FSS: WILLIAMSPORT FLIGHT SERVICE STATION
Attendance: UNATNDD
Wind indicator: lighted
Segmented circle: no
CIRCULAR HELI.

Heliport Communications

WX ASOS at PTW (1.3 nm E): 119.425 (610-495-0823)
WX AWOS-3T at OQN (15 nm S): 121.4 ((610) 692-6190)
WX AWOS-3 at UKT (15 nm NE): 119.475 (215-538-7610)
WX AWOS-3 at LOM (16 nm E): 118.925 (215-646-1068)
WX AWOS-3 at CKZ (16 nm NE): 126.325 (215-257-7291)
WX ASOS at RDG (20 nm NW): 127.1 (610-372-9863)

Nearby radio navigation aids

VOR radial/distance  VOR name  Freq  Var
PTWr311/1.2POTTSTOWN VORTAC116.5009W
MXEr021/19.3MODENA VORTAC113.2009W
ETXr177/21.4EAST TEXAS VOR/DME110.2009W
FJCr201/30.2ALLENTOWN VORTAC117.5010W
ARDr278/31.0YARDLEY VOR/DME108.2010W
LRPr087/33.2LANCASTER VOR/DME117.3009W
DQOr012/33.3DUPONT VORTAC114.0010W
OODr350/38.1WOODSTOWN VORTAC112.8010W

 
NDB name  Hdg/Dist  Freq  Var  ID
AMBLER307/15.127512WING .. -. --.

Heliport Services

Runway Information

Helipad H1

Dimensions: 62 x 62 ft. / 19 x 19 m
Surface: asphalt
Runway edge lights: PERI
Operational restrictions: INGRESS/EGRESS 010-190, 150-330.
Traffic pattern: leftleft

Heliport Ownership and Management from official FAA records

Ownership: Privately-owned
Owner: EXELON GENERATION CO. LLC
3146 SANATOGA RD
SANATOGA, PA 19464
Phone (610) 718-3320
Manager: NORMAN PITT
3146 SANATOGA RD
SANATOGA, PA 19464
Phone (610) 718-2810

Additional Remarks

FOR CD CTC PHILADELPHIA APCH AT 800-354-9884.

Instrument Procedures

There are no published instrument procedures at PN63.

Some nearby airports with instrument procedures:

KPTW - Heritage Field Airport (1 nm E)
N47 - Pottstown Municipal Airport (4 nm W)
N10 - Perkiomen Valley Airport (7 nm E)
KOQN - Brandywine Regional Airport (15 nm S)
KUKT - Quakertown Airport (15 nm NE)
KLOM - Wings Field Airport (16 nm E)
KCKZ - Pennridge Airport (16 nm NE)
KRDG - Reading Regional Airport/Carl A Spaatz Field (20 nm NW)
 
Loc | Ops | Rwys | IFR | FBO | Links
Com | Nav | Svcs | Stats | Notes
Area around PN63 (Limerick Generating Station Heliport)
 
Road maps at: MapQuest Bing Google
 
Aerial photo
No photo
 
Sectional chart

 
Airport distance calculator
Flying to Limerick Generating Station Heliport? Find the distance to fly.

From to PN63

Sunrise and sunset
Times for 12-Jul-2020
 Local
(UTC-4)
 Zulu
(UTC)
Morning civil twilight05:1309:13
Sunrise05:4509:45
Sunset20:3100:31
Evening civil twilight21:0301:03

Current date and time
Zulu (UTC)  12-Jul-2020 19:10:53
Local (UTC-4)  12-Jul-2020 15:10:53
 
METAR
KPTW 
2nm E 
121854Z AUTO 21007KT 8SM FEW060 BKN100 29/17 A2977 RMK AO2 SLP077 T02940167
KOQN 
15nm S 
121855Z AUTO 24005KT 10SM SCT060 SCT080 BKN110 30/16 A2977 RMK AO2
KUKT 
15nm NE 
121855Z AUTO 22007KT 10SM CLR 31/18 A2976 RMK A01
KLOM 
16nm E 
121855Z AUTO 24010KT 10SM BKN060 31/18 A2976 RMK AO2 P0001 T03110178
KCKZ 
16nm NE 
121855Z AUTO 26006KT 10SM SCT060 BKN095 29/17 A2977 RMK AO2
KRDG 
19nm NW 
121854Z 20007KT 10SM BKN050 31/18 A2973 RMK AO2 SLP069 T03110178
TAF
KRDG 
19nm NW 
121726Z 1218/1318 26008KT P6SM SCT050 BKN120 FM121900 24008KT P6SM VCSH BKN040 FM122100 24006KT P6SM -SHRA VCTS BKN040CB FM130000 VRB03KT P6SM -SHRA BKN040 FM130600 VRB02KT P6SM BKN060 FM131300 30007KT P6SM BKN200
NOTAMs
Click for the latest NOTAMs
NOTAMs are issued by the DoD/FAA and will open in a separate window not controlled by AirNav.

 

 
 

Would you like to see your business listed on this page?

 If your business provides an interesting product or service to pilots, flight crews, aircraft, or users of the Limerick Generating Station Heliport, you should consider listing it here.  To start the listing process, click on the button below
 
Add a business
 

Other Pages about Limerick Generating Station Heliport

Update a link
 
Copyright © AirNav, LLC. All rights reserved. Privacy Policy  Contact